Regional Weather Roundup
Issued by NWS

Home | Current Version | Previous Version | Graphics & Text | Print | Product List | Glossary On
Versions: 1 2 3 4 5 6 7 8 9 10 11 12 13 14 15 16 17 18 19 20 21 22 23 24 25 26 27 28 29 30 31 32 33 34 35 36 37 38 39 40 41 42 43 44 45 46 47 48 49 50
596
ASUS43 KMKX 231820
RWRWI

WISCONSIN REGIONAL WEATHER ROUNDUP
NATIONAL WEATHER SERVICE MILWAUKEE/SULLIVAN WI
1200 PM CST MON JAN 23 2017

NOTE: "FAIR" INDICATES FEW OR NO CLOUDS BELOW 12,000 FEET WITH NO
SIGNIFICANT WEATHER AND/OR OBSTRUCTIONS TO VISIBILITY.

WIZ001-002-006>008-014>016-023>028-231900-
NORTHWEST WISCONSIN

CITY           SKY/WX    TMP DP  RH WIND       PRES   REMARKS
SUPERIOR ARPT  CLOUDY    40  35  82 W3        29.78F
6HR MIN TEMP:  34; 6HR MAX TEMP:  40;

ASHLAND        CLOUDY    37  35  92 W5        29.79S WCI  33
6HR MIN TEMP:  34; 6HR MAX TEMP:  37;

HAYWARD        CLOUDY    36  34  92 CALM      29.78S
6HR MIN TEMP:  35; 6HR MAX TEMP:  36;

SIREN          DRIZZLE   34  34  99 SW3       29.80F
6HR MIN TEMP:  33; 6HR MAX TEMP:  34; 6HR PCP:  0.01;

CUMBERLAND     CLOUDY    32  32 100 CALM      29.79F
RICE LAKE      CLOUDY    34  34 100 W5        29.82R WCI  30
6HR MIN TEMP:  33; 6HR MAX TEMP:  34;

CHETEK         CLOUDY    35  35 100 CALM      29.80S
6HR MIN TEMP:  33; 6HR MAX TEMP:  35;

LADYSMITH      CLOUDY    36  35  98 W5        29.79F FOG     WCI  32
6HR MIN TEMP:  34; 6HR MAX TEMP:  36;

EAU CLAIRE     CLOUDY    34  34 100 W6        29.81R FOG     WCI  29
6HR MIN TEMP:  33; 6HR MAX TEMP:  34; 6HR PCP:  0.01;

MENOMONIE        N/A    N/A N/A N/A MISG        N/A
NEW RICHMOND   CLOUDY    34  34 100 SW5       29.82F FOG     WCI  30
6HR MIN TEMP:  32; 6HR MAX TEMP:  34; 6HR PCP:  0.01;

OSCEOLA        CLOUDY    35  35 100 SW3       29.84F FOG
6HR MIN TEMP:  33; 6HR MAX TEMP:  35;

$$

WIZ003>005-009-010-017-018-231900-
NORTH CENTRAL WISCONSIN

CITY           SKY/WX    TMP DP  RH WIND       PRES   REMARKS
MANITOWISH WTR CLOUDY    33  33 100 CALM      29.75S
6HR MIN TEMP:  32; 6HR MAX TEMP:  33;

ARBOR VITAE    CLOUDY    37  36  96 CALM      29.74F
6HR MIN TEMP:  34; 6HR MAX TEMP:  37;

WOODRUFF       CLOUDY    37  36  96 CALM      29.74F
6HR MIN TEMP:  34; 6HR MAX TEMP:  37;

RHINELANDER    CLOUDY    35  34  96 CALM      29.75F
6HR MIN TEMP:  32; 6HR MAX TEMP:  35;

EAGLE RIVER    CLOUDY    34  34 100 CALM      29.74F
6HR MIN TEMP:  32; 6HR MAX TEMP:  34;

LAND O LAKES   CLOUDY    35  35 100 CALM      29.76F
6HR MIN TEMP:  32; 6HR MAX TEMP:  35;

PHILLIPS       CLOUDY    34  34 100 CALM      29.76F
6HR MIN TEMP:  32; 6HR MAX TEMP:  34;

TOMAHAWK       CLOUDY    35  33  94 CALM      29.76F
6HR MIN TEMP:  32; 6HR MAX TEMP:  35;

MEDFORD        FOG       33  33 100 W5        29.76F VSB 1/4 WCI  28
6HR MIN TEMP:  32; 6HR MAX TEMP:  33;

MERRILL        CLOUDY    35  34  97 CALM        N/A
6HR MIN TEMP:  33; 6HR MAX TEMP:  35;

$$

WIZ029-030-035-036-043>047-231900-
CENTRAL WISCONSIN

CITY           SKY/WX    TMP DP  RH WIND       PRES   REMARKS
WAUSAU         CLOUDY    34  33  96 W5        29.75F WCI  30
6HR MIN TEMP:  33; 6HR MAX TEMP:  35;

MOSINEE        CLOUDY    34  34 100 W3        29.77F
MARSHFIELD     FOG       34  33  96 NW5       29.76F VSB 3/4 WCI  30
6HR MIN TEMP:  33; 6HR MAX TEMP:  34; 6HR PCP: TRACE;

STEVENS POINT  CLOUDY    35  34  95 CALM      29.78F
6HR MIN TEMP:  32; 6HR MAX TEMP:  35;

WAUPACA        CLOUDY    39  35  84 CALM      29.78F
6HR MIN TEMP:  36; 6HR MAX TEMP:  39;

WAUTOMA        CLOUDY    37  36  96 NW5       29.79F WCI  33
6HR MIN TEMP:  34; 6HR MAX TEMP:  37;

WISC RAPIDS    CLOUDY    35  35 100 NW5       29.79F WCI  31
6HR MIN TEMP:  34; 6HR MAX TEMP:  35;

CAMP DOUGLAS   CLOUDY    36  36 100 W7        29.79F FOG     WCI  30
$$

WIZ011>013-019>022-031-037>040-048>050-231900-
NORTHEAST WISCONSIN

CITY           SKY/WX    TMP DP  RH WIND       PRES   REMARKS
ANTIGO         CLOUDY    34  33  94 CALM      29.76S
6HR MIN TEMP:  32; 6HR MAX TEMP:  34;

SHAWANO        CLOUDY    40  35  83 CALM      29.77F
6HR MIN TEMP:  35; 6HR MAX TEMP:  40;

OCONTO         CLOUDY    36  34  90 NW5       29.76F WCI  32
6HR MIN TEMP:  34; 6HR MAX TEMP:  36;

STURGEON BAY   FOG       36  36 100 NW6       29.76F VSB 1/4 WCI  31
GREEN BAY      CLOUDY    39  36  89 NW8       29.77F WCI  33
6HR MIN TEMP:  36; 6HR MAX TEMP:  39;

MANITOWOC      CLOUDY    38  37  97 MISG      29.77F
6HR MIN TEMP:  36; 6HR MAX TEMP:  38;

APPLETON       CLOUDY    37  37 100 NW5       29.76F WCI  34
CLINTONVILLE   CLOUDY    37  34  87 CALM      29.77F
OSHKOSH        CLOUDY    37  35  92 NW6       29.77F WCI  32
6HR MIN TEMP:  35; 6HR MAX TEMP:  37;

$$

WIZ032>034-041-042-053>061-231900-
SOUTHWEST WISCONSIN

CITY           SKY/WX    TMP DP  RH WIND       PRES   REMARKS
LA CROSSE      CLOUDY    39  34  82 CALM      29.82S
6HR MIN TEMP:  37; 6HR MAX TEMP:  41; 6HR PCP:  0.01;

SPARTA         CLOUDY    35  34  96 W3        29.82S
6HR MIN TEMP:  33; 6HR MAX TEMP:  35;

VIROQUA        CLOUDY    34  34 100 W7        29.80S WCI  28
6HR MIN TEMP:  33; 6HR MAX TEMP:  34;

BOSCOBEL       CLOUDY    41  35  79 SW5       29.82S
6HR MIN TEMP:  37; 6HR MAX TEMP:  41;

PRAIRIE DU CHI CLOUDY    37  33  86 NW3       29.84S
6HR MIN TEMP:  34; 6HR MAX TEMP:  37;

PLATTEVILLE    CLOUDY    38  37  98 NW5       29.81S WCI  34
6HR MIN TEMP:  35; 6HR MAX TEMP:  38;

$$

WIZ056-057-062-063-064-067-068-231900-
SOUTH CENTRAL WISCONSIN

CITY           SKY/WX    TMP DP  RH WIND       PRES   REMARKS
REEDSBURG      CLOUDY    36  36 100 W7        29.79S FOG     WCI  30
6HR MIN TEMP:  34; 6HR MAX TEMP:  36;

BARABOO/DELLS  CLOUDY    36  35  95 NW5       29.78F WCI  32
6HR MIN TEMP:  34; 6HR MAX TEMP:  36;

LONE ROCK      CLOUDY    42  35  76 W6        29.80F
6HR MIN TEMP:  35; 6HR MAX TEMP:  42;

MINERAL POINT  CLOUDY    39  37  93 NW6       29.79  WCI  35
MADISON        CLOUDY    39  35  86 NW5       29.79F
6HR MIN TEMP:  35; 6HR MAX TEMP:  39; 6HR PCP: TRACE;

MIDDLETON      CLOUDY    40  40 100 NW9       29.79F WCI  33
6HR MIN TEMP:  36; 6HR MAX TEMP:  40;

WATERTOWN      CLOUDY    37  37 100 NW6       29.77F WCI  32
6HR MIN TEMP:  34; 6HR MAX TEMP:  37;

MONROE         CLOUDY    39  36  87 N9        29.78  WCI  33
JANESVILLE     CLOUDY    43  37  81 NW7       29.77F
$$

WIZ051-052-058>065-066-070>072-231900-
SOUTHEAST WISCONSIN

CITY           SKY/WX    TMP DP  RH WIND       PRES   REMARKS
MILWAUKEE      CLOUDY    41  36  82 NW8       29.76F
6HR MIN TEMP:  39; 6HR MAX TEMP:  42;

WAUKESHA       CLOUDY    36  36 100 W7        29.78S FOG     WCI  30
MILWAUKEE/TIMM CLOUDY    39  36  87 NW6       29.78F WCI  35
RACINE         CLOUDY    41  36  82 NW5       29.77F
6HR MIN TEMP:  37; 6HR MAX TEMP:  40;

KENOSHA        CLOUDY    40  36  86 NW6       29.77F
6HR MIN TEMP:  37; 6HR MAX TEMP:  40;

FOND DU LAC    CLOUDY    38  34  85 NW7       29.77F WCI  33
6HR MIN TEMP:  35; 6HR MAX TEMP:  38; 6HR PCP: TRACE;

SHEBOYGAN      CLOUDY    40  36  86 NW7       29.75F
6HR MIN TEMP:  36; 6HR MAX TEMP:  39;

WEST BEND      CLOUDY    36  36 100 NW7       29.77S FOG     WCI  30
JUNEAU         CLOUDY    35  34  96 NW3       29.78F FOG
6HR MIN TEMP:  33; 6HR MAX TEMP:  35;

$$

LSZ147-162-231900-
LAKE SUPERIOR

STATION/POSITION TIME  TEMP    WIND        PRES    WAVE
                       AIR SEA DIR/SP/G            HT/PER
                 (UTC) (F)     (DEG/KT/KT) (MB)    (FT/S)
DEVILS ISLAND    1800   34     230/  5/  7 1009.2F
PORT WING        1730   37     240/  4/  6 1009.1S
SAXON HARBOR     1730   37     170/  1/  4 1008.8S
$$

LMZ867-665-643>646-231900-
LAKE MICHIGAN

STATION/POSITION TIME  TEMP    WIND        PRES    WAVE
                       AIR SEA DIR/SP/G            HT/PER
                 (UTC) (F)     (DEG/KT/KT) (MB)    (FT/S)
NORTHPORT PIER   1740   34     310/  5/  6 1007.8F
SISTER BAY       1720   34      10/  8/  9   N/A
KEWAUNEE LAKESHO 1754   37     300/  5/  8 1007.3F
SHEBOYGAN LAKESH 1800   39     300/  5/  7 1008.0F
PORT WASHINGTON  1740   40     310/  4/  8 1009.1S
K



USA.gov is the U.S. government's official web portal to all federal, state and local government web resources and services.